SWT183 GCXO-LEMD

Flight info

Callsign SWT183
Flight time 2h 12m
Altitude 36000
Route VASTO UN858 AKUDA DCT GIMAL DCT PESAS DCT PARKA DCT SOTUK
Aircraft B752/M-SDE2E3FGHIJ3J4J7RWXY/LB1

Departure

Time 2026-05-05 10:34
Airport Tenerife Norte-Ciudad de La Laguna Airport (GCXO)

Arrival

Time 2026-05-05 12:47
Airport Adolfo Suárez Madrid–Barajas Airport (LEMD)
Time Latitude Longitude Altitude Speed Heading
2026-05-05 09:54 28.48531 -16.34285 2024 ft 0 kts 20°
2026-05-05 10:20 28.48528 -16.34286 2023 ft 2 kts 20°
2026-05-05 10:20 28.48514 -16.34292 2024 ft 2 kts 21°
2026-05-05 10:21 28.48500 -16.34298 2024 ft 2 kts 21°
2026-05-05 10:21 28.48486 -16.34304 2025 ft 2 kts 21°
2026-05-05 10:21 28.48476 -16.34308 2026 ft 1 kts 21°
2026-05-05 10:21 28.48463 -16.34312 2026 ft 2 kts 359°
2026-05-05 10:22 28.48448 -16.34309 2027 ft 2 kts 339°
2026-05-05 10:22 28.48435 -16.34300 2027 ft 2 kts 317°
2026-05-05 10:22 28.48426 -16.34286 2026 ft 1 kts 296°
2026-05-05 10:22 28.48424 -16.34280 2025 ft 1 kts 288°
2026-05-05 10:23 28.48423 -16.34277 2025 ft 0 kts 289°
2026-05-05 10:27 28.48428 -16.34294 2027 ft 4 kts 291°
2026-05-05 10:27 28.48448 -16.34353 2030 ft 11 kts 291°
2026-05-05 10:27 28.48485 -16.34460 2037 ft 15 kts 291°
2026-05-05 10:28 28.48527 -16.34590 2044 ft 19 kts 290°
2026-05-05 10:28 28.48581 -16.34755 2051 ft 24 kts 290°
2026-05-05 10:28 28.48643 -16.34941 2057 ft 24 kts 291°
2026-05-05 10:28 28.48703 -16.35120 2058 ft 23 kts 291°
2026-05-05 10:29 28.48762 -16.35297 2055 ft 24 kts 290°
2026-05-05 10:29 28.48811 -16.35448 2052 ft 0 kts 291°
2026-05-05 10:29 28.48817 -16.35464 2052 ft 0 kts 291°
2026-05-05 10:31 28.48827 -16.35494 2052 ft 7 kts 291°
2026-05-05 10:31 28.48857 -16.35582 2049 ft 8 kts 291°
2026-05-05 10:31 28.48858 -16.35584 2049 ft 0 kts 291°
2026-05-05 10:32 28.48863 -16.35599 2049 ft 7 kts 291°
2026-05-05 10:32 28.48877 -16.35675 2049 ft 12 kts 263°
2026-05-05 10:32 28.48833 -16.35749 2050 ft 6 kts 201°
2026-05-05 10:33 28.48794 -16.35734 2051 ft 8 kts 129°
2026-05-05 10:33 28.48763 -16.35658 2051 ft 16 kts 112°
2026-05-05 10:33 28.48643 -16.35298 2060 ft 82 kts 111°
2026-05-05 10:33 28.48369 -16.34515 2047 ft 119 kts 109°
2026-05-05 10:34 28.48023 -16.33451 2045 ft 167 kts 108°
2026-05-05 10:34 28.47611 -16.32165 2468 ft 185 kts 111°
2026-05-05 10:34 28.47053 -16.30734 2985 ft 206 kts 117°
2026-05-05 10:34 28.46363 -16.29259 3462 ft 220 kts 116°
2026-05-05 10:35 28.45669 -16.27630 3940 ft 237 kts 115°
2026-05-05 10:35 28.44961 -16.25878 4415 ft 256 kts 114°
2026-05-05 10:35 28.44200 -16.23969 4913 ft 274 kts 115°
2026-05-05 10:35 28.43419 -16.21981 5769 ft 278 kts 114°
2026-05-05 10:36 28.42657 -16.19943 6509 ft 287 kts 114°
2026-05-05 10:36 28.41874 -16.17861 7389 ft 289 kts 114°
2026-05-05 10:36 28.41081 -16.15756 8180 ft 295 kts 115°
2026-05-05 10:36 28.40273 -16.13612 8945 ft 301 kts 115°
2026-05-05 10:37 28.39448 -16.11426 9736 ft 305 kts 116°
2026-05-05 10:37 28.38601 -16.09184 10439 ft 313 kts 116°
2026-05-05 10:37 28.37719 -16.06857 10773 ft 334 kts 116°
2026-05-05 10:37 28.36851 -16.04339 11129 ft 356 kts 108°
2026-05-05 10:38 28.36546 -16.01490 11806 ft 369 kts 90°
2026-05-05 10:38 28.36973 -15.98608 12526 ft 377 kts 72°
2026-05-05 10:38 28.38083 -15.95923 13113 ft 386 kts 55°
2026-05-05 10:38 28.39845 -15.93629 13888 ft 385 kts 38°
2026-05-05 10:39 28.42072 -15.91951 14522 ft 386 kts 21°
2026-05-05 10:39 28.44600 -15.91009 15114 ft 384 kts
2026-05-05 10:39 28.47236 -15.90844 15734 ft 381 kts 353°
2026-05-05 10:39 28.49941 -15.90536 16376 ft 395 kts
2026-05-05 10:40 28.52560 -15.89430 16937 ft 410 kts 24°
2026-05-05 10:40 28.54903 -15.87577 17510 ft 421 kts 40°
2026-05-05 10:40 28.56837 -15.85051 18091 ft 429 kts 56°
2026-05-05 10:40 28.58202 -15.82026 18647 ft 434 kts 71°
2026-05-05 10:41 28.58908 -15.78664 19137 ft 437 kts 88°
2026-05-05 10:41 28.58891 -15.75245 19760 ft 433 kts 100°
2026-05-05 10:41 28.58568 -15.71860 20261 ft 439 kts 101°
2026-05-05 10:41 28.58242 -15.68398 20890 ft 443 kts 101°
2026-05-05 10:42 28.58357 -15.61309 21937 ft 463 kts 80°
2026-05-05 10:42 28.59223 -15.57765 22459 ft 469 kts 73°
2026-05-05 10:42 28.60321 -15.54274 22966 ft 474 kts 70°
2026-05-05 10:43 28.61552 -15.50747 23473 ft 479 kts 69°
2026-05-05 10:43 28.62829 -15.47266 23987 ft 483 kts 68°
2026-05-05 10:43 28.64161 -15.43715 24470 ft 488 kts 67°
2026-05-05 10:43 28.65502 -15.40197 24967 ft 491 kts 67°
2026-05-05 10:44 28.66867 -15.36634 25437 ft 495 kts 66°
2026-05-05 10:44 28.68266 -15.32991 25799 ft 501 kts 67°
2026-05-05 10:44 28.69653 -15.29389 26301 ft 503 kts 67°
2026-05-05 10:44 28.71053 -15.25745 26739 ft 506 kts 68°
2026-05-05 10:45 28.72473 -15.22048 27101 ft 511 kts 67°
2026-05-05 10:45 28.73890 -15.18361 27565 ft 513 kts 67°
2026-05-05 10:45 28.75342 -15.14587 27889 ft 519 kts 67°
2026-05-05 10:45 28.76795 -15.10850 28375 ft 520 kts 66°
2026-05-05 10:46 28.78248 -15.07083 28636 ft 526 kts 67°
2026-05-05 10:46 28.79703 -15.03291 29093 ft 527 kts 67°
2026-05-05 10:46 28.81172 -14.99455 29400 ft 532 kts 67°
2026-05-05 10:46 28.82656 -14.95572 29781 ft 534 kts 67°
2026-05-05 10:47 28.84155 -14.91666 30142 ft 537 kts 65°
2026-05-05 10:47 28.85885 -14.87899 30428 ft 541 kts 57°
2026-05-05 10:47 28.88059 -14.84420 30875 ft 538 kts 47°
2026-05-05 10:47 28.90633 -14.81315 31109 ft 538 kts 38°
2026-05-05 10:48 28.93529 -14.78715 31651 ft 529 kts 28°
2026-05-05 10:48 28.96532 -14.76512 31902 ft 531 kts 26°
2026-05-05 10:48 28.99628 -14.74225 32549 ft 526 kts 27°
2026-05-05 10:48 29.02691 -14.71937 32838 ft 529 kts 27°
2026-05-05 10:49 29.05742 -14.69642 33276 ft 528 kts 27°
2026-05-05 10:49 29.08791 -14.67337 33690 ft 527 kts 27°
2026-05-05 10:49 29.11873 -14.65001 34168 ft 525 kts 27°
2026-05-05 10:49 29.14911 -14.62697 34386 ft 528 kts 27°
2026-05-05 10:50 29.17956 -14.60382 34870 ft 525 kts 27°
2026-05-05 10:50 29.20999 -14.58063 35338 ft 523 kts 26°
2026-05-05 10:50 29.24002 -14.55781 35510 ft 526 kts 26°
2026-05-05 10:50 29.27043 -14.53460 36014 ft 521 kts 26°
2026-05-05 10:51 29.30022 -14.51188 36045 ft 518 kts 26°
2026-05-05 10:51 29.36078 -14.46569 36056 ft 522 kts 26°
2026-05-05 10:52 29.42130 -14.42023 36063 ft 521 kts 26°
2026-05-05 10:52 29.48170 -14.37433 36063 ft 520 kts 26°
2026-05-05 10:53 29.54190 -14.32829 36043 ft 522 kts 27°
2026-05-05 10:53 29.60214 -14.28205 36053 ft 524 kts 27°
2026-05-05 10:54 29.66272 -14.23546 36048 ft 523 kts 27°
2026-05-05 10:54 29.72296 -14.18905 36052 ft 522 kts 27°
2026-05-05 10:55 29.78333 -14.14250 36067 ft 522 kts 27°
2026-05-05 10:55 29.84398 -14.09564 36063 ft 523 kts 27°
2026-05-05 10:56 29.90431 -14.04898 36069 ft 524 kts 27°
2026-05-05 10:56 29.96431 -14.00249 36072 ft 523 kts 27°
2026-05-05 10:57 30.02463 -13.95567 36073 ft 523 kts 26°
2026-05-05 10:57 30.08510 -13.90869 36069 ft 522 kts 27°
2026-05-05 10:58 30.14498 -13.86210 36064 ft 520 kts 27°
2026-05-05 10:58 30.20478 -13.81548 36070 ft 520 kts 27°
2026-05-05 10:59 30.26504 -13.76847 36062 ft 522 kts 27°
2026-05-05 10:59 30.32510 -13.72150 36058 ft 521 kts 27°
2026-05-05 11:00 30.38491 -13.67465 36065 ft 519 kts 27°
2026-05-05 11:00 30.44461 -13.62788 36066 ft 521 kts 27°
2026-05-05 11:01 30.50464 -13.58071 36068 ft 520 kts 27°
2026-05-05 11:01 30.56401 -13.53357 36071 ft 518 kts 27°
2026-05-05 11:02 30.62359 -13.48616 36067 ft 521 kts 27°
2026-05-05 11:02 30.68352 -13.43839 36070 ft 522 kts 27°
2026-05-05 11:03 30.74294 -13.39095 36078 ft 520 kts 27°
2026-05-05 11:03 30.80284 -13.34306 36076 ft 522 kts 28°
2026-05-05 11:04 30.86240 -13.29537 36062 ft 522 kts 28°
2026-05-05 11:04 30.92233 -13.24717 36061 ft 522 kts 27°
2026-05-05 11:05 30.98195 -13.19987 36071 ft 521 kts 27°
2026-05-05 11:05 31.04200 -13.15225 36072 ft 522 kts 27°
2026-05-05 11:06 31.10184 -13.10459 36072 ft 520 kts 27°
2026-05-05 11:06 31.16112 -13.05733 36074 ft 520 kts 27°
2026-05-05 11:07 31.22106 -13.00936 36074 ft 522 kts 28°
2026-05-05 11:07 31.28055 -12.96178 36078 ft 517 kts 27°
2026-05-05 11:08 31.33975 -12.91430 36082 ft 516 kts 28°
2026-05-05 11:08 31.39895 -12.86683 36080 ft 515 kts 27°
2026-05-05 11:09 31.45763 -12.81972 36084 ft 514 kts 28°
2026-05-05 11:09 31.51679 -12.77210 36078 ft 515 kts 28°
2026-05-05 11:10 31.57580 -12.72660 36088 ft 510 kts 26°
2026-05-05 11:10 31.63490 -12.68023 36089 ft 510 kts 28°
2026-05-05 11:11 31.69324 -12.63343 36091 ft 508 kts 28°
2026-05-05 11:11 31.75137 -12.58646 36090 ft 510 kts 29°
2026-05-05 11:12 31.80952 -12.53930 36090 ft 507 kts 28°
2026-05-05 11:12 31.86733 -12.49233 36091 ft 506 kts 28°
2026-05-05 11:13 31.92530 -12.44515 36090 ft 504 kts 28°
2026-05-05 11:13 31.98287 -12.39825 36097 ft 507 kts 29°
2026-05-05 11:14 32.04073 -12.35116 35882 ft 501 kts 29°
2026-05-05 11:14 32.06908 -12.32804 36080 ft 498 kts 29°
2026-05-05 11:14 32.09764 -12.30478 36085 ft 502 kts 30°
2026-05-05 11:15 32.15517 -12.25783 36075 ft 506 kts 30°
2026-05-05 11:15 32.21283 -12.21068 36074 ft 500 kts 30°
2026-05-05 11:16 32.27000 -12.16388 36079 ft 504 kts 30°
2026-05-05 11:16 32.32715 -12.11700 36077 ft 500 kts 30°
2026-05-05 11:17 32.38435 -12.07000 36080 ft 498 kts 30°
2026-05-05 11:17 32.44109 -12.02333 36076 ft 496 kts 30°
2026-05-05 11:18 32.49768 -11.97670 36081 ft 494 kts 31°
2026-05-05 11:18 32.55387 -11.93033 36084 ft 495 kts 30°
2026-05-05 11:19 32.61017 -11.88380 36088 ft 492 kts 31°
2026-05-05 11:19 32.66605 -11.83754 36086 ft 489 kts 31°
2026-05-05 11:20 32.72172 -11.79137 36081 ft 489 kts 31°
2026-05-05 11:20 32.77765 -11.74493 36088 ft 489 kts 31°
2026-05-05 11:21 32.83318 -11.69875 36089 ft 486 kts 31°
2026-05-05 11:21 32.88842 -11.65273 36089 ft 486 kts 31°
2026-05-05 11:22 32.94362 -11.60668 36092 ft 484 kts 31°
2026-05-05 11:22 32.99860 -11.56074 36091 ft 484 kts 31°
2026-05-05 11:23 33.05398 -11.51439 36093 ft 486 kts 31°
2026-05-05 11:23 33.09446 -11.48036 36115 ft 492 kts 28°
2026-05-05 11:24 33.15123 -11.43281 36073 ft 503 kts 29°
2026-05-05 11:24 33.20864 -11.38437 35784 ft 506 kts 30°
2026-05-05 11:24 33.23679 -11.36050 36105 ft 496 kts 31°
2026-05-05 11:25 33.26469 -11.33685 36093 ft 492 kts 32°
2026-05-05 11:25 33.30742 -11.30054 36097 ft 481 kts 32°
2026-05-05 11:26 33.36162 -11.25442 36096 ft 478 kts 32°
2026-05-05 11:26 33.41585 -11.20824 36093 ft 480 kts 32°
2026-05-05 11:27 33.46975 -11.16224 36095 ft 477 kts 32°
2026-05-05 11:27 33.52410 -11.11581 36097 ft 479 kts 32°
2026-05-05 11:28 33.57790 -11.06976 36097 ft 478 kts 32°
2026-05-05 11:28 33.63201 -11.02338 36090 ft 476 kts 32°
2026-05-05 11:29 33.68570 -10.97730 36090 ft 474 kts 32°
2026-05-05 11:29 33.73898 -10.93148 36091 ft 474 kts 32°
2026-05-05 11:30 33.79268 -10.88524 36092 ft 475 kts 32°
2026-05-05 11:30 33.84645 -10.83886 36097 ft 472 kts 33°
2026-05-05 11:31 33.89945 -10.79308 36099 ft 472 kts 33°
2026-05-05 11:31 33.95286 -10.74686 36100 ft 470 kts 32°
2026-05-05 11:32 34.00545 -10.70128 36096 ft 468 kts 33°
2026-05-05 11:32 34.05849 -10.65526 36093 ft 469 kts 33°
2026-05-05 11:33 34.11138 -10.60926 36099 ft 469 kts 33°
2026-05-05 11:33 34.16402 -10.56344 36096 ft 468 kts 33°
2026-05-05 11:34 34.21689 -10.51733 36098 ft 469 kts 33°
2026-05-05 11:34 34.26958 -10.47130 36102 ft 470 kts 33°
2026-05-05 11:35 34.32241 -10.42508 36103 ft 468 kts 33°
2026-05-05 11:35 34.37511 -10.37892 36103 ft 468 kts 33°
2026-05-05 11:36 34.42774 -10.33273 36097 ft 469 kts 33°
2026-05-05 11:36 34.48039 -10.28645 36101 ft 469 kts 33°
2026-05-05 11:37 34.53317 -10.23998 36100 ft 468 kts 33°
2026-05-05 11:37 34.58569 -10.19368 36101 ft 468 kts 33°
2026-05-05 11:38 34.63833 -10.14727 36105 ft 469 kts 33°
2026-05-05 11:38 34.69096 -10.10102 36108 ft 469 kts 33°
2026-05-05 11:39 34.74379 -10.05451 36110 ft 469 kts 33°
2026-05-05 11:39 34.79631 -10.00820 36112 ft 468 kts 33°
2026-05-05 11:40 34.84917 -9.96150 36112 ft 469 kts 33°
2026-05-05 11:40 34.90178 -9.91497 36111 ft 468 kts 33°
2026-05-05 11:41 34.95421 -9.86852 36107 ft 469 kts 33°
2026-05-05 11:41 35.00688 -9.82177 36108 ft 470 kts 33°
2026-05-05 11:42 35.05976 -9.77476 36110 ft 469 kts 33°
2026-05-05 11:42 35.11227 -9.72799 36107 ft 469 kts 33°
2026-05-05 11:43 35.16502 -9.68095 36106 ft 469 kts 33°
2026-05-05 11:43 35.21776 -9.63384 36104 ft 470 kts 33°
2026-05-05 11:44 35.27050 -9.58665 36104 ft 469 kts 33°
2026-05-05 11:44 35.32127 -9.54114 36104 ft 470 kts 33°
2026-05-05 11:45 35.37386 -9.49393 36106 ft 470 kts 33°
2026-05-05 11:45 35.42686 -9.44628 36103 ft 471 kts 33°
2026-05-05 11:46 35.47957 -9.39880 36105 ft 472 kts 33°
2026-05-05 11:46 35.53257 -9.35098 36104 ft 472 kts 33°
2026-05-05 11:47 35.58543 -9.30321 36094 ft 473 kts 33°
2026-05-05 11:47 35.63826 -9.25539 36092 ft 473 kts 33°
2026-05-05 11:48 35.71767 -9.18336 36092 ft 474 kts 33°
2026-05-05 11:48 35.77093 -9.13494 36092 ft 474 kts 33°
2026-05-05 11:49 35.82368 -9.08691 36095 ft 474 kts 33°
2026-05-05 11:49 35.87669 -9.03856 36094 ft 476 kts 33°
2026-05-05 11:50 35.92976 -8.99008 36093 ft 475 kts 33°
2026-05-05 11:50 35.98137 -8.93901 36106 ft 479 kts 40°
2026-05-05 11:51 36.02974 -8.88299 36096 ft 479 kts 40°
2026-05-05 11:51 36.07819 -8.82651 36095 ft 479 kts 40°
2026-05-05 11:52 36.12553 -8.77106 36094 ft 480 kts 40°
2026-05-05 11:52 36.17383 -8.71437 36089 ft 479 kts 40°
2026-05-05 11:53 36.22228 -8.65739 36091 ft 479 kts 40°
2026-05-05 11:53 36.27050 -8.60056 36088 ft 480 kts 40°
2026-05-05 11:54 36.31868 -8.54369 36090 ft 479 kts 40°
2026-05-05 11:54 36.36594 -8.48600 36092 ft 480 kts 41°
2026-05-05 11:55 36.41338 -8.42765 36090 ft 479 kts 41°
2026-05-05 11:55 36.46122 -8.37004 36083 ft 479 kts 40°
2026-05-05 11:56 36.50900 -8.31298 36072 ft 478 kts 40°
2026-05-05 11:56 36.55699 -8.25575 36075 ft 480 kts 40°
2026-05-05 11:57 36.60524 -8.19817 36072 ft 481 kts 40°
2026-05-05 11:57 36.65340 -8.14060 36068 ft 480 kts 40°
2026-05-05 11:58 36.70152 -8.08297 36068 ft 481 kts 40°
2026-05-05 11:58 36.74917 -8.02464 36064 ft 483 kts 45°
2026-05-05 11:59 36.78651 -7.95515 36068 ft 490 kts 58°
2026-05-05 11:59 36.81983 -7.88103 36061 ft 490 kts 58°
2026-05-05 12:00 36.85301 -7.80676 36062 ft 490 kts 58°
2026-05-05 12:00 36.88570 -7.73273 36058 ft 490 kts 58°
2026-05-05 12:01 36.91869 -7.65834 36062 ft 491 kts 58°
2026-05-05 12:01 36.95132 -7.58388 36055 ft 489 kts 58°
2026-05-05 12:02 36.98366 -7.50968 36059 ft 490 kts 58°
2026-05-05 12:02 37.01636 -7.43447 36060 ft 491 kts 58°
2026-05-05 12:03 37.05709 -7.36753 36074 ft 483 kts 38°
2026-05-05 12:03 37.10708 -7.31119 36046 ft 482 kts 37°
2026-05-05 12:04 37.15741 -7.25534 36042 ft 483 kts 37°
2026-05-05 12:04 37.20752 -7.19952 36051 ft 483 kts 37°
2026-05-05 12:05 37.25756 -7.14357 36040 ft 483 kts 37°
2026-05-05 12:05 37.30830 -7.08809 36048 ft 483 kts 36°
2026-05-05 12:06 37.35886 -7.03241 36046 ft 484 kts 36°
2026-05-05 12:06 37.40878 -6.97708 36034 ft 482 kts 36°
2026-05-05 12:07 37.45914 -6.92112 36036 ft 485 kts 36°
2026-05-05 12:07 37.50964 -6.86484 36042 ft 484 kts 36°
2026-05-05 12:08 37.55992 -6.80873 36042 ft 484 kts 36°
2026-05-05 12:08 37.61034 -6.75234 36041 ft 484 kts 36°
2026-05-05 12:09 37.66057 -6.69606 36042 ft 486 kts 36°
2026-05-05 12:09 37.71072 -6.63975 36042 ft 486 kts 36°
2026-05-05 12:10 37.76170 -6.58242 36044 ft 487 kts 36°
2026-05-05 12:10 37.81221 -6.52549 36047 ft 488 kts 36°
2026-05-05 12:11 37.86265 -6.46854 36038 ft 489 kts 36°
2026-05-05 12:11 37.91345 -6.41106 36036 ft 489 kts 36°
2026-05-05 12:12 37.96397 -6.35380 36034 ft 489 kts 36°
2026-05-05 12:12 38.01519 -6.29710 36016 ft 490 kts 34°
2026-05-05 12:13 38.06646 -6.24071 36015 ft 489 kts 36°
2026-05-05 12:13 38.11742 -6.18321 36016 ft 490 kts 36°
2026-05-05 12:14 38.16813 -6.12549 36015 ft 491 kts 36°
2026-05-05 12:14 38.21849 -6.06698 36009 ft 492 kts 40°
2026-05-05 12:15 38.26751 -6.00642 36015 ft 492 kts 37°
2026-05-05 12:15 38.31763 -5.94754 36012 ft 489 kts 37°
2026-05-05 12:16 38.36781 -5.88937 36011 ft 490 kts 36°
2026-05-05 12:16 38.41799 -5.83137 36008 ft 489 kts 36°
2026-05-05 12:17 38.46842 -5.77305 36013 ft 489 kts 36°
2026-05-05 12:17 38.51862 -5.71490 36014 ft 491 kts 36°
2026-05-05 12:18 38.56905 -5.65636 35740 ft 487 kts 36°
2026-05-05 12:18 38.59388 -5.62745 35513 ft 475 kts 36°
2026-05-05 12:18 38.61778 -5.59963 35290 ft 470 kts 35°
2026-05-05 12:19 38.64228 -5.57115 35073 ft 473 kts 35°
2026-05-05 12:19 38.66675 -5.54269 34860 ft 479 kts 36°
2026-05-05 12:19 38.69133 -5.51402 34653 ft 481 kts 35°
2026-05-05 12:19 38.71617 -5.48499 34434 ft 480 kts 35°
2026-05-05 12:20 38.74049 -5.45655 34208 ft 479 kts 35°
2026-05-05 12:20 38.76511 -5.42779 33963 ft 478 kts 34°
2026-05-05 12:20 38.78997 -5.39928 33723 ft 477 kts 34°
2026-05-05 12:20 38.81459 -5.37083 33487 ft 479 kts 35°
2026-05-05 12:21 38.83933 -5.34201 33250 ft 481 kts 36°
2026-05-05 12:21 38.86419 -5.31289 32981 ft 480 kts 36°
2026-05-05 12:21 38.88870 -5.28413 32723 ft 480 kts 36°
2026-05-05 12:21 38.91324 -5.25529 32471 ft 481 kts 36°
2026-05-05 12:22 38.93788 -5.22629 32213 ft 482 kts 36°
2026-05-05 12:22 38.96279 -5.19725 31954 ft 481 kts 35°
2026-05-05 12:22 38.98706 -5.16768 31707 ft 486 kts 41°
2026-05-05 12:22 39.00811 -5.13383 31457 ft 492 kts 51°
2026-05-05 12:23 39.02679 -5.09678 31215 ft 495 kts 53°
2026-05-05 12:23 39.04519 -5.05949 30953 ft 496 kts 53°
2026-05-05 12:23 39.06342 -5.02215 30704 ft 494 kts 53°
2026-05-05 12:23 39.08134 -4.98510 30448 ft 491 kts 54°
2026-05-05 12:24 39.09930 -4.94787 30193 ft 492 kts 53°
2026-05-05 12:24 39.11723 -4.91062 29926 ft 505 kts 54°
2026-05-05 12:24 39.13508 -4.87341 29679 ft 510 kts 54°
2026-05-05 12:24 39.15325 -4.83542 29408 ft 507 kts 54°
2026-05-05 12:25 39.17163 -4.79696 29142 ft 503 kts 54°
2026-05-05 12:25 39.19084 -4.75987 29045 ft 492 kts 46°
2026-05-05 12:25 39.21336 -4.72691 28800 ft 499 kts 39°
2026-05-05 12:25 39.23769 -4.69503 28056 ft 507 kts 39°
2026-05-05 12:26 39.26246 -4.66259 27326 ft 503 kts 39°
2026-05-05 12:26 39.28663 -4.63100 27290 ft 485 kts 39°
2026-05-05 12:26 39.31000 -4.60056 26738 ft 480 kts 39°
2026-05-05 12:26 39.33355 -4.56999 26130 ft 477 kts 39°
2026-05-05 12:27 39.35682 -4.53972 25621 ft 472 kts 39°
2026-05-05 12:27 39.37978 -4.50987 25059 ft 467 kts 39°
2026-05-05 12:27 39.40231 -4.48050 24951 ft 451 kts 39°
2026-05-05 12:27 39.42379 -4.45246 24424 ft 437 kts 38°
2026-05-05 12:28 39.44511 -4.42462 23368 ft 435 kts 40°
2026-05-05 12:28 39.46585 -4.39663 22843 ft 428 kts 40°
2026-05-05 12:28 39.48632 -4.36901 22369 ft 424 kts 40°
2026-05-05 12:28 39.50661 -4.34205 21928 ft 419 kts 40°
2026-05-05 12:29 39.52709 -4.31506 21405 ft 416 kts 40°
2026-05-05 12:29 39.54716 -4.28865 21035 ft 409 kts 40°
2026-05-05 12:29 39.56693 -4.26269 20497 ft 406 kts 40°
2026-05-05 12:29 39.58668 -4.23676 20082 ft 400 kts 41°
2026-05-05 12:30 39.60612 -4.21124 19553 ft 398 kts 41°
2026-05-05 12:30 39.62537 -4.18593 19122 ft 392 kts 41°
2026-05-05 12:30 39.64435 -4.16097 18643 ft 389 kts 41°
2026-05-05 12:30 39.66311 -4.13628 18235 ft 383 kts 41°
2026-05-05 12:31 39.68150 -4.11205 17755 ft 380 kts 41°
2026-05-05 12:31 39.69992 -4.08778 17312 ft 375 kts 41°
2026-05-05 12:31 39.71808 -4.06384 16843 ft 371 kts 41°
2026-05-05 12:31 39.73612 -4.04017 16515 ft 362 kts 41°
2026-05-05 12:32 39.75317 -4.01750 16511 ft 345 kts 41°
2026-05-05 12:32 39.76983 -3.99544 16093 ft 343 kts 41°
2026-05-05 12:32 39.78659 -3.97330 15887 ft 341 kts 41°
2026-05-05 12:32 39.80360 -3.95083 15896 ft 356 kts 41°
2026-05-05 12:33 39.82091 -3.92789 15752 ft 358 kts 41°
2026-05-05 12:33 39.83836 -3.90476 15157 ft 359 kts 42°
2026-05-05 12:33 39.85550 -3.88194 15108 ft 343 kts 42°
2026-05-05 12:33 39.87206 -3.85994 14690 ft 340 kts 42°
2026-05-05 12:34 39.88839 -3.83826 14299 ft 336 kts 42°
2026-05-05 12:34 39.90466 -3.81662 13867 ft 333 kts 41°
2026-05-05 12:34 39.92070 -3.79528 13440 ft 330 kts 42°
2026-05-05 12:34 39.93660 -3.77407 13313 ft 315 kts 42°
2026-05-05 12:35 39.95173 -3.75404 12981 ft 303 kts 41°
2026-05-05 12:35 39.96635 -3.73468 12413 ft 301 kts 43°
2026-05-05 12:35 39.98081 -3.71525 11916 ft 296 kts 43°
2026-05-05 12:35 39.99495 -3.69631 11374 ft 293 kts 43°
2026-05-05 12:36 40.00914 -3.67732 10828 ft 290 kts 43°
2026-05-05 12:36 40.02301 -3.65877 10240 ft 289 kts 44°
2026-05-05 12:36 40.03674 -3.64038 10035 ft 273 kts 43°
2026-05-05 12:36 40.04993 -3.62282 10044 ft 280 kts 43°
2026-05-05 12:37 40.06418 -3.60377 9611 ft 295 kts 44°
2026-05-05 12:37 40.07851 -3.58449 9116 ft 298 kts 44°
2026-05-05 12:37 40.09286 -3.56520 8624 ft 300 kts 44°
2026-05-05 12:37 40.10703 -3.54617 8085 ft 298 kts 44°
2026-05-05 12:38 40.12117 -3.52715 7554 ft 286 kts 44°
2026-05-05 12:38 40.13455 -3.50913 7306 ft 265 kts 44°
2026-05-05 12:38 40.14691 -3.49249 7293 ft 250 kts 44°
2026-05-05 12:38 40.15927 -3.47589 7147 ft 258 kts 44°
2026-05-05 12:39 40.17193 -3.45921 6820 ft 259 kts 41°
2026-05-05 12:39 40.18515 -3.44367 6495 ft 258 kts 40°
2026-05-05 12:39 40.19839 -3.42810 6188 ft 256 kts 40°
2026-05-05 12:39 40.21211 -3.41387 5831 ft 246 kts 27°
2026-05-05 12:40 40.22679 -3.40336 5565 ft 235 kts 27°
2026-05-05 12:40 40.24077 -3.39285 5295 ft 227 kts 27°
2026-05-05 12:40 40.25493 -3.38525 5065 ft 212 kts
2026-05-05 12:40 40.26920 -3.38369 5048 ft 202 kts
2026-05-05 12:41 40.28328 -3.38217 5090 ft 208 kts
2026-05-05 12:41 40.29793 -3.38077 5074 ft 209 kts
2026-05-05 12:41 40.31205 -3.37973 5038 ft 200 kts 353°
2026-05-05 12:41 40.32411 -3.38601 5066 ft 177 kts 319°
2026-05-05 12:42 40.33328 -3.39559 5044 ft 161 kts 320°
2026-05-05 12:42 40.34158 -3.40381 5051 ft 146 kts 320°
2026-05-05 12:42 40.35001 -3.41227 5074 ft 156 kts 320°
2026-05-05 12:42 40.35858 -3.42083 4977 ft 150 kts 320°
2026-05-05 12:43 40.36681 -3.42904 4956 ft 145 kts 321°
2026-05-05 12:43 40.37500 -3.43683 4570 ft 147 kts 321°
2026-05-05 12:43 40.38303 -3.44467 4191 ft 142 kts 322°
2026-05-05 12:43 40.39092 -3.45194 3855 ft 135 kts 322°
2026-05-05 12:44 40.39849 -3.45902 3656 ft 132 kts 321°
2026-05-05 12:44 40.40606 -3.46633 3561 ft 137 kts 318°
2026-05-05 12:44 40.41373 -3.47410 3390 ft 135 kts 318°
2026-05-05 12:44 40.42117 -3.48193 3218 ft 137 kts 318°
2026-05-05 12:45 40.42861 -3.48977 3028 ft 139 kts 319°
2026-05-05 12:45 40.43627 -3.49776 2818 ft 142 kts 318°
2026-05-05 12:45 40.44392 -3.50580 2613 ft 136 kts 318°
2026-05-05 12:45 40.45135 -3.51346 2432 ft 132 kts 318°
2026-05-05 12:46 40.45861 -3.52099 2243 ft 135 kts 318°
2026-05-05 12:46 40.46592 -3.52838 2065 ft 132 kts 320°
2026-05-05 12:46 40.47323 -3.53580 1942 ft 134 kts 319°
2026-05-05 12:46 40.48046 -3.54312 1908 ft 121 kts 319°
2026-05-05 12:47 40.48539 -3.54818 1918 ft 61 kts 319°
2026-05-05 12:47 40.48705 -3.54999 1923 ft 21 kts 315°
2026-05-05 12:47 40.48790 -3.55175 1926 ft 22 kts 292°
2026-05-05 12:47 40.48835 -3.55317 1928 ft 14 kts 292°
2026-05-05 12:48 40.48872 -3.55425 1930 ft 11 kts 302°
2026-05-05 12:48 40.48935 -3.55504 1932 ft 15 kts 322°
2026-05-05 12:48 40.49029 -3.55601 1935 ft 18 kts 321°
2026-05-05 12:48 40.49128 -3.55707 1939 ft 17 kts 320°
2026-05-05 12:49 40.49220 -3.55798 1944 ft 16 kts 322°
2026-05-05 12:49 40.49294 -3.55884 1948 ft 11 kts 297°
2026-05-05 12:49 40.49300 -3.55979 1951 ft 11 kts 268°
2026-05-05 12:49 40.49298 -3.56094 1956 ft 15 kts 270°
2026-05-05 12:50 40.49297 -3.56212 1959 ft 9 kts 254°
2026-05-05 12:50 40.49257 -3.56248 1959 ft 4 kts 191°
2026-05-05 12:50 40.49244 -3.56278 1960 ft 6 kts 264°
2026-05-05 12:50 40.49242 -3.56341 1963 ft 5 kts 270°
2026-05-05 12:51 40.49243 -3.56363 1964 ft 0 kts 270°